TimeCST,TemperatureF,Dew PointF,Humidity,Sea Level PressureIn,VisibilityMPH,Wind Direction,Wind SpeedMPH,Gust SpeedMPH,PrecipitationIn,Events,Conditions,WindDirDegrees,DateUTC
12:56 AM,54.0,48.9,83,30.19,9.0,North,8.1,-,N/A,,Mostly Cloudy,360,2013-01-29 06:56:00
1:56 AM,52.9,47.8,83,30.18,8.0,North,8.1,-,0.00,,Partly Cloudy,10,2013-01-29 07:56:00
2:56 AM,52.9,48.9,86,30.16,9.0,North,6.9,-,N/A,,Mostly Cloudy,10,2013-01-29 08:56:00
3:56 AM,54.9,48.9,80,30.14,10.0,North,8.1,-,N/A,,Mostly Cloudy,350,2013-01-29 09:56:00
4:56 AM,55.9,50.0,80,30.12,10.0,NNW,11.5,-,N/A,,Overcast,330,2013-01-29 10:56:00
5:56 AM,55.9,50.9,83,30.13,10.0,North,8.1,-,N/A,,Overcast,350,2013-01-29 11:56:00
6:56 AM,56.8,52.0,84,30.13,9.0,NNW,15.0,-,N/A,,Mostly Cloudy,330,2013-01-29 12:56:00
7:56 AM,57.9,54.0,87,30.13,7.0,North,9.2,-,N/A,,Scattered Clouds,360,2013-01-29 13:56:00
8:56 AM,61.0,54.9,80,30.14,8.0,North,11.5,-,N/A,,Clear,10,2013-01-29 14:56:00
9:56 AM,63.9,55.9,75,30.12,10.0,North,16.1,-,N/A,,Clear,10,2013-01-29 15:56:00
10:43 AM,64.4,55.4,73,30.09,10.0,North,15.0,21.9,N/A,,Mostly Cloudy,10,2013-01-29 16:43:00
10:56 AM,65.8,55.9,70,30.09,10.0,NNE,15.0,23.0,N/A,,Mostly Cloudy,20,2013-01-29 16:56:00
11:09 AM,66.2,55.4,68,30.07,10.0,North,17.3,20.7,N/A,,Scattered Clouds,360,2013-01-29 17:09:00
11:21 AM,66.2,57.2,73,30.07,10.0,North,15.0,-,N/A,,Mostly Cloudy,10,2013-01-29 17:21:00
11:56 AM,68.0,56.8,67,30.06,10.0,NNE,18.4,24.2,N/A,,Mostly Cloudy,20,2013-01-29 17:56:00
12:37 PM,69.8,57.2,64,30.01,10.0,NNE,15.0,-,N/A,,Mostly Cloudy,20,2013-01-29 18:37:00
12:56 PM,70.0,57.9,65,30.01,10.0,NNE,17.3,21.9,N/A,,Scattered Clouds,20,2013-01-29 18:56:00
1:56 PM,70.9,59.0,66,29.97,10.0,NNE,18.4,24.2,N/A,,Scattered Clouds,20,2013-01-29 19:56:00
2:56 PM,68.9,59.0,71,29.94,10.0,NNW,20.7,27.6,N/A,,Partly Cloudy,340,2013-01-29 20:56:00
3:56 PM,66.9,59.0,76,29.94,10.0,North,13.8,25.3,N/A,,Mostly Cloudy,10,2013-01-29 21:56:00
4:56 PM,64.9,59.0,81,29.94,10.0,North,12.7,-,N/A,,Overcast,360,2013-01-29 22:56:00
5:56 PM,64.9,59.0,81,29.94,10.0,NNE,6.9,16.1,N/A,,Overcast,30,2013-01-29 23:56:00
6:46 PM,64.4,59.0,83,29.92,10.0,North,13.8,20.7,N/A,,Mostly Cloudy,10,2013-01-30 00:46:00
6:56 PM,64.9,59.0,81,29.92,10.0,North,13.8,-,N/A,,Scattered Clouds,360,2013-01-30 00:56:00
7:56 PM,64.9,57.9,78,29.89,10.0,North,17.3,25.3,N/A,,Clear,360,2013-01-30 01:56:00
8:56 PM,64.9,57.9,78,29.84,10.0,North,25.3,31.1,N/A,,Clear,350,2013-01-30 02:56:00
9:56 PM,64.9,57.9,78,29.81,10.0,North,23.0,27.6,N/A,,Clear,10,2013-01-30 03:56:00
10:56 PM,65.8,59.0,79,29.77,10.0,North,25.3,36.8,N/A,,Clear,360,2013-01-30 04:56:00
11:56 PM,64.9,59.0,81,29.73,10.0,North,21.9,31.1,N/A,,Clear,360,2013-01-30 05:56:00